Location: Unspecified
(0.0000°N, 0.0000°E)
Time: 07:47:49
(UTC+00:00)

Vanguard 2 Rocket - Pass Details

Date: 07 October 2022
Orbit: 555 x 3321 km, 32.9° (Epoch: 06 December)

Event Time Altitude Azimuth Distance (km) Brightness Sun altitude
Rises 13:48:14 0° 210° (SSW) 5,060 11.0 59.4°
Reaches altitude 10° 13:52:33 10° 194° (SSW) 4,527 10.8 58.4°
Maximum altitude 14:01:58 21° 149° (SSE) 4,482 10.5 56.0°
Drops below altitude 10° 14:14:14 10° 107° (ESE) 6,067 10.9 53.0°
Sets 14:21:27 0° 93° (E) 7,279 11.1 51.2°
